AVS531H LEMG-LKPR

Flight info

Callsign AVS531H
Flight time 2h 50m
Altitude 36000
Route RIXUR DCT UNTOS DCT ROLAS DCT TOSGA DCT RESTU DCT ALT DCT SUMMO DCT MITOS DCT BRUNO DCT RUXET DCT IZA DCT TUKRO DCT ASMOT DCT PTC DCT MHN DCT ISTER DCT NIVDA DCT OMEDA DCT RAPUR DCT TORTU DCT ERTEV DCT MALUG/N0447F370 DCT MEDEL DCT APRAQ
Aircraft B738/M-SDE2E3FGHIRWXY/LB1

Departure

Time 2026-05-07 22:08
Airport Málaga-Costa del Sol Airport (LEMG)

Arrival

Time 2026-05-08 00:59
Airport Václav Havel Airport Prague (LKPR)
Time Latitude Longitude Altitude Speed Heading
2026-05-07 21:47 36.67428 -4.49254 38 ft 0 kts
2026-05-07 21:49 36.67426 -4.49255 38 ft 1 kts 10°
2026-05-07 21:49 36.67411 -4.49258 38 ft 2 kts 10°
2026-05-07 21:50 36.67397 -4.49261 38 ft 2 kts 10°
2026-05-07 21:50 36.67382 -4.49264 38 ft 2 kts 10°
2026-05-07 21:50 36.67368 -4.49267 38 ft 1 kts 10°
2026-05-07 21:50 36.67363 -4.49268 38 ft 2 kts 10°
2026-05-07 21:51 36.67352 -4.49268 38 ft 2 kts 351°
2026-05-07 21:51 36.67338 -4.49263 38 ft 2 kts 335°
2026-05-07 21:51 36.67326 -4.49253 38 ft 2 kts 316°
2026-05-07 21:51 36.67321 -4.49246 38 ft 1 kts 307°
2026-05-07 21:52 36.67319 -4.49243 38 ft 0 kts 309°
2026-05-07 22:02 36.67320 -4.49245 38 ft 1 kts 310°
2026-05-07 22:02 36.67328 -4.49257 38 ft 1 kts 310°
2026-05-07 22:02 36.67332 -4.49262 38 ft 0 kts 310°
2026-05-07 22:03 36.67334 -4.49265 38 ft 0 kts 310°
2026-05-07 22:03 36.67347 -4.49284 38 ft 9 kts 310°
2026-05-07 22:03 36.67422 -4.49389 39 ft 21 kts 309°
2026-05-07 22:04 36.67440 -4.49534 40 ft 16 kts 295°
2026-05-07 22:04 36.67489 -4.49626 42 ft 13 kts 315°
2026-05-07 22:04 36.67542 -4.49691 43 ft 10 kts 316°
2026-05-07 22:05 36.67596 -4.49764 43 ft 15 kts 313°
2026-05-07 22:05 36.67712 -4.49924 43 ft 34 kts 312°
2026-05-07 22:05 36.67895 -4.50184 42 ft 40 kts 311°
2026-05-07 22:05 36.68074 -4.50442 42 ft 37 kts 314°
2026-05-07 22:06 36.68247 -4.50675 41 ft 35 kts 313°
2026-05-07 22:06 36.68404 -4.50896 44 ft 32 kts 311°
2026-05-07 22:06 36.68498 -4.51085 46 ft 21 kts 267°
2026-05-07 22:06 36.68428 -4.51204 48 ft 15 kts 165°
2026-05-07 22:07 36.68347 -4.51112 48 ft 20 kts 131°
2026-05-07 22:07 36.68150 -4.50829 46 ft 69 kts 131°
2026-05-07 22:07 36.67706 -4.50199 46 ft 123 kts 131°
2026-05-07 22:07 36.67025 -4.49261 69 ft 165 kts 133°
2026-05-07 22:08 36.66249 -4.48218 527 ft 170 kts 133°
2026-05-07 22:08 36.65404 -4.47088 969 ft 183 kts 131°
2026-05-07 22:08 36.64588 -4.45932 1423 ft 184 kts 130°
2026-05-07 22:08 36.63726 -4.44690 1631 ft 198 kts 130°
2026-05-07 22:09 36.62763 -4.43334 1835 ft 215 kts 130°
2026-05-07 22:09 36.61738 -4.41904 2142 ft 227 kts 131°
2026-05-07 22:09 36.60695 -4.40442 2658 ft 228 kts 129°
2026-05-07 22:09 36.59817 -4.38796 3068 ft 234 kts 117°
2026-05-07 22:10 36.59184 -4.37187 3347 ft 247 kts 114°
2026-05-07 22:10 36.58504 -4.35170 3732 ft 259 kts 110°
2026-05-07 22:10 36.57926 -4.33042 4276 ft 264 kts 106°
2026-05-07 22:10 36.57459 -4.30846 4905 ft 265 kts 103°
2026-05-07 22:11 36.57127 -4.28582 5533 ft 266 kts 92°
2026-05-07 22:11 36.57461 -4.26344 6078 ft 271 kts 69°
2026-05-07 22:11 36.58451 -4.24375 6724 ft 273 kts 49°
2026-05-07 22:11 36.59838 -4.22718 7265 ft 279 kts 43°
2026-05-07 22:12 36.61327 -4.21130 7786 ft 286 kts 42°
2026-05-07 22:12 36.62823 -4.19511 8335 ft 291 kts 43°
2026-05-07 22:12 36.64333 -4.17817 8927 ft 295 kts 44°
2026-05-07 22:12 36.65854 -4.16074 9481 ft 300 kts 44°
2026-05-07 22:13 36.67390 -4.14298 10074 ft 305 kts 44°
2026-05-07 22:13 36.68981 -4.12457 10386 ft 320 kts 44°
2026-05-07 22:13 36.70642 -4.10537 10679 ft 335 kts 44°
2026-05-07 22:13 36.72385 -4.08520 11068 ft 347 kts 44°
2026-05-07 22:14 36.74181 -4.06443 11612 ft 354 kts 44°
2026-05-07 22:14 36.75962 -4.04381 12290 ft 356 kts 43°
2026-05-07 22:14 36.77798 -4.02257 12806 ft 364 kts 43°
2026-05-07 22:14 36.79652 -4.00110 13439 ft 368 kts 43°
2026-05-07 22:15 36.81531 -3.97934 14013 ft 374 kts 43°
2026-05-07 22:15 36.83457 -3.95702 14684 ft 377 kts 42°
2026-05-07 22:15 36.85370 -3.93483 15295 ft 381 kts 42°
2026-05-07 22:15 36.87313 -3.91224 15963 ft 385 kts 42°
2026-05-07 22:16 36.89274 -3.88941 16573 ft 389 kts 41°
2026-05-07 22:16 36.91266 -3.86615 17203 ft 392 kts 41°
2026-05-07 22:16 36.93249 -3.84301 17650 ft 397 kts 41°
2026-05-07 22:16 36.95271 -3.81941 18276 ft 400 kts 41°
2026-05-07 22:17 36.97301 -3.79572 18866 ft 403 kts 41°
2026-05-07 22:17 36.99366 -3.77163 19341 ft 408 kts 41°
2026-05-07 22:17 37.01436 -3.74750 19910 ft 410 kts 41°
2026-05-07 22:17 37.03523 -3.72324 20365 ft 415 kts 41°
2026-05-07 22:18 37.05658 -3.69840 20854 ft 419 kts 40°
2026-05-07 22:18 37.09803 -3.64735 21879 ft 424 kts 47°
2026-05-07 22:18 37.11588 -3.61795 22363 ft 428 kts 56°
2026-05-07 22:19 37.13128 -3.58565 22812 ft 431 kts 60°
2026-05-07 22:19 37.14517 -3.55232 23276 ft 434 kts 63°
2026-05-07 22:19 37.15836 -3.51848 23690 ft 438 kts 64°
2026-05-07 22:19 37.17142 -3.48421 24171 ft 440 kts 64°
2026-05-07 22:20 37.18460 -3.44951 24564 ft 444 kts 64°
2026-05-07 22:20 37.19801 -3.41435 24980 ft 447 kts 63°
2026-05-07 22:20 37.21149 -3.37929 25410 ft 450 kts 63°
2026-05-07 22:20 37.22510 -3.34422 25830 ft 452 kts 64°
2026-05-07 22:21 37.23888 -3.30890 26212 ft 455 kts 63°
2026-05-07 22:21 37.25297 -3.27287 26562 ft 459 kts 63°
2026-05-07 22:21 37.26697 -3.23712 26905 ft 462 kts 63°
2026-05-07 22:21 37.28127 -3.20060 27208 ft 466 kts 63°
2026-05-07 22:22 37.29553 -3.16415 27585 ft 469 kts 63°
2026-05-07 22:22 37.30991 -3.12739 27925 ft 471 kts 63°
2026-05-07 22:22 37.32431 -3.09047 28307 ft 473 kts 63°
2026-05-07 22:22 37.33879 -3.05334 28606 ft 477 kts 62°
2026-05-07 22:23 37.35328 -3.01613 28969 ft 478 kts 62°
2026-05-07 22:23 37.36788 -2.97870 29287 ft 481 kts 63°
2026-05-07 22:23 37.38260 -2.94093 29627 ft 483 kts 62°
2026-05-07 22:23 37.39749 -2.90256 29915 ft 486 kts 63°
2026-05-07 22:24 37.41239 -2.86410 30232 ft 489 kts 63°
2026-05-07 22:24 37.42725 -2.82567 30518 ft 492 kts 63°
2026-05-07 22:24 37.44238 -2.78644 30768 ft 495 kts 63°
2026-05-07 22:24 37.45749 -2.74724 31079 ft 497 kts 63°
2026-05-07 22:25 37.47263 -2.70797 31439 ft 498 kts 63°
2026-05-07 22:25 37.48764 -2.66899 31684 ft 502 kts 62°
2026-05-07 22:25 37.50279 -2.62956 31913 ft 505 kts 62°
2026-05-07 22:25 37.51811 -2.58962 32197 ft 508 kts 62°
2026-05-07 22:26 37.53340 -2.54975 32434 ft 510 kts 62°
2026-05-07 22:26 37.54901 -2.50902 32737 ft 512 kts 62°
2026-05-07 22:26 37.56437 -2.46895 32952 ft 515 kts 62°
2026-05-07 22:26 37.57982 -2.42862 33326 ft 514 kts 62°
2026-05-07 22:27 37.59535 -2.38788 33843 ft 510 kts 62°
2026-05-07 22:27 37.61060 -2.34775 34344 ft 507 kts 63°
2026-05-07 22:27 37.62573 -2.30794 34691 ft 507 kts 63°
2026-05-07 22:27 37.64082 -2.26813 34949 ft 508 kts 62°
2026-05-07 22:28 37.65597 -2.22815 35310 ft 507 kts 62°
2026-05-07 22:28 37.67123 -2.18785 35714 ft 505 kts 62°
2026-05-07 22:28 37.68619 -2.14834 35981 ft 505 kts 62°
2026-05-07 22:29 37.71659 -2.06801 35998 ft 508 kts 62°
2026-05-07 22:29 37.73178 -2.02782 35708 ft 506 kts 62°
2026-05-07 22:29 37.74679 -1.98800 35937 ft 503 kts 62°
2026-05-07 22:30 37.77682 -1.90824 35998 ft 509 kts 62°
2026-05-07 22:30 37.80718 -1.82735 35999 ft 508 kts 62°
2026-05-07 22:31 37.83714 -1.74723 35991 ft 507 kts 62°
2026-05-07 22:31 37.86724 -1.66651 35986 ft 508 kts 62°
2026-05-07 22:32 37.89720 -1.58602 35983 ft 508 kts 62°
2026-05-07 22:32 37.92730 -1.50495 35979 ft 510 kts 62°
2026-05-07 22:33 37.95719 -1.42421 35976 ft 508 kts 61°
2026-05-07 22:33 37.98701 -1.34339 35968 ft 509 kts 62°
2026-05-07 22:34 38.01702 -1.26189 35964 ft 510 kts 62°
2026-05-07 22:34 38.04666 -1.18117 35963 ft 509 kts 62°
2026-05-07 22:35 38.07645 -1.09988 35964 ft 511 kts 62°
2026-05-07 22:35 38.10631 -1.01814 35970 ft 510 kts 62°
2026-05-07 22:36 38.13576 -0.93729 35972 ft 509 kts 62°
2026-05-07 22:36 38.16557 -0.85525 35970 ft 510 kts 61°
2026-05-07 22:37 38.19492 -0.77419 35972 ft 507 kts 62°
2026-05-07 22:37 38.22432 -0.69282 35980 ft 508 kts 61°
2026-05-07 22:38 38.25368 -0.61130 35977 ft 509 kts 61°
2026-05-07 22:38 38.28258 -0.52975 35977 ft 508 kts 62°
2026-05-07 22:39 38.30953 -0.44644 35975 ft 509 kts 64°
2026-05-07 22:39 38.33551 -0.36319 35975 ft 509 kts 64°
2026-05-07 22:40 38.36160 -0.27962 35973 ft 508 kts 65°
2026-05-07 22:40 38.38844 -0.19636 35970 ft 510 kts 63°
2026-05-07 22:41 38.41594 -0.11387 35970 ft 506 kts 62°
2026-05-07 22:41 38.44365 -0.03111 35970 ft 508 kts 62°
2026-05-07 22:42 38.47084 0.05133 35967 ft 507 kts 63°
2026-05-07 22:42 38.49750 0.13429 35966 ft 507 kts 63°
2026-05-07 22:43 38.52410 0.21771 35963 ft 507 kts 63°
2026-05-07 22:43 38.55049 0.30057 35962 ft 508 kts 63°
2026-05-07 22:44 38.57720 0.38449 35959 ft 506 kts 63°
2026-05-07 22:44 38.60355 0.46751 35958 ft 506 kts 63°
2026-05-07 22:45 38.62971 0.55023 35959 ft 507 kts 63°
2026-05-07 22:45 38.65614 0.63402 35956 ft 506 kts 63°
2026-05-07 22:46 38.68238 0.71748 35957 ft 508 kts 63°
2026-05-07 22:46 38.70852 0.80078 35955 ft 506 kts 63°
2026-05-07 22:47 38.73461 0.88422 35958 ft 506 kts 63°
2026-05-07 22:47 38.76061 0.96756 35956 ft 509 kts 63°
2026-05-07 22:48 38.78665 1.05143 35959 ft 506 kts 63°
2026-05-07 22:48 38.81255 1.13508 35961 ft 507 kts 63°
2026-05-07 22:49 38.83830 1.21847 35954 ft 505 kts 64°
2026-05-07 22:49 38.86425 1.30268 35958 ft 508 kts 63°
2026-05-07 22:50 38.88990 1.38623 35955 ft 505 kts 63°
2026-05-07 22:50 38.91544 1.46975 35956 ft 506 kts 64°
2026-05-07 22:51 38.94067 1.55369 35947 ft 505 kts 64°
2026-05-07 22:51 38.96540 1.63786 35946 ft 506 kts 64°
2026-05-07 22:52 38.99012 1.72251 35941 ft 506 kts 65°
2026-05-07 22:52 39.01459 1.80642 35939 ft 504 kts 65°
2026-05-07 22:53 39.03905 1.89036 35943 ft 502 kts 65°
2026-05-07 22:53 39.06344 1.97409 35945 ft 501 kts 65°
2026-05-07 22:54 39.08788 2.05818 35944 ft 503 kts 65°
2026-05-07 22:54 39.11213 2.14197 35944 ft 503 kts 65°
2026-05-07 22:55 39.13643 2.22626 35946 ft 505 kts 65°
2026-05-07 22:55 39.16071 2.31069 35947 ft 503 kts 65°
2026-05-07 22:56 39.18485 2.39485 35949 ft 503 kts 65°
2026-05-07 22:56 39.20906 2.47966 35947 ft 505 kts 65°
2026-05-07 22:57 39.23303 2.56402 35953 ft 501 kts 65°
2026-05-07 22:57 39.25686 2.64793 35957 ft 502 kts 65°
2026-05-07 22:58 39.28070 2.73212 35959 ft 503 kts 66°
2026-05-07 22:58 39.30463 2.81694 35959 ft 503 kts 66°
2026-05-07 22:59 39.32837 2.90125 35962 ft 503 kts 66°
2026-05-07 22:59 39.35210 2.98592 35965 ft 503 kts 66°
2026-05-07 23:00 39.37564 3.07027 35965 ft 502 kts 67°
2026-05-07 23:00 39.39932 3.15528 35963 ft 503 kts 67°
2026-05-07 23:01 39.42390 3.23937 35961 ft 500 kts 62°
2026-05-07 23:01 39.45497 3.31884 35961 ft 496 kts 56°
2026-05-07 23:02 39.48975 3.39535 35968 ft 494 kts 54°
2026-05-07 23:02 39.52544 3.47149 35971 ft 495 kts 54°
2026-05-07 23:03 39.56063 3.54711 35973 ft 493 kts 55°
2026-05-07 23:03 39.59575 3.62335 35966 ft 494 kts 55°
2026-05-07 23:04 39.63055 3.69945 35976 ft 492 kts 56°
2026-05-07 23:04 39.66524 3.77570 35967 ft 493 kts 56°
2026-05-07 23:05 39.69986 3.85202 35972 ft 492 kts 56°
2026-05-07 23:05 39.73445 3.92849 35974 ft 493 kts 56°
2026-05-07 23:06 39.76875 4.00457 35979 ft 489 kts 56°
2026-05-07 23:06 39.80315 4.08096 35981 ft 491 kts 57°
2026-05-07 23:07 39.83731 4.15699 35986 ft 490 kts 57°
2026-05-07 23:07 39.87155 4.23345 35986 ft 488 kts 57°
2026-05-07 23:08 39.90573 4.30973 35988 ft 490 kts 57°
2026-05-07 23:08 39.94004 4.38632 35985 ft 487 kts 58°
2026-05-07 23:09 39.97373 4.46170 35980 ft 487 kts 57°
2026-05-07 23:09 40.00776 4.53805 35983 ft 486 kts 58°
2026-05-07 23:10 40.04147 4.61391 35982 ft 486 kts 58°
2026-05-07 23:10 40.07812 4.68785 35980 ft 483 kts 52°
2026-05-07 23:11 40.11985 4.75630 35983 ft 483 kts 49°
2026-05-07 23:11 40.16303 4.82297 35981 ft 482 kts 48°
2026-05-07 23:12 40.20636 4.88990 35985 ft 484 kts 48°
2026-05-07 23:12 40.24938 4.95706 35990 ft 483 kts 49°
2026-05-07 23:13 40.29203 5.02419 35989 ft 482 kts 49°
2026-05-07 23:13 40.33480 5.09182 35987 ft 483 kts 49°
2026-05-07 23:14 40.37722 5.15923 35986 ft 482 kts 49°
2026-05-07 23:14 40.41995 5.22729 35977 ft 484 kts 49°
2026-05-07 23:15 40.46237 5.29494 35970 ft 483 kts 50°
2026-05-07 23:15 40.50513 5.36327 35967 ft 483 kts 50°
2026-05-07 23:16 40.54737 5.43097 35968 ft 483 kts 50°
2026-05-07 23:16 40.59003 5.49947 35967 ft 484 kts 50°
2026-05-07 23:17 40.63229 5.56742 35968 ft 483 kts 50°
2026-05-07 23:17 40.67479 5.63591 35966 ft 484 kts 50°
2026-05-07 23:18 40.71727 5.70456 35968 ft 484 kts 51°
2026-05-07 23:18 40.75952 5.77304 35967 ft 483 kts 51°
2026-05-07 23:19 40.80177 5.84162 35969 ft 484 kts 51°
2026-05-07 23:19 40.84398 5.91025 35966 ft 483 kts 51°
2026-05-07 23:20 40.88635 5.97940 35972 ft 485 kts 52°
2026-05-07 23:20 40.92887 6.04894 35973 ft 484 kts 51°
2026-05-07 23:21 40.97103 6.11806 35971 ft 485 kts 51°
2026-05-07 23:21 41.01318 6.18734 35971 ft 485 kts 51°
2026-05-07 23:22 41.05540 6.25683 35965 ft 484 kts 52°
2026-05-07 23:22 41.09734 6.32602 35964 ft 485 kts 51°
2026-05-07 23:23 41.13925 6.39532 35970 ft 484 kts 51°
2026-05-07 23:23 41.18126 6.46492 35977 ft 485 kts 52°
2026-05-07 23:24 41.22325 6.53467 35972 ft 485 kts 52°
2026-05-07 23:24 41.26533 6.60431 35973 ft 484 kts 51°
2026-05-07 23:25 41.30804 6.67319 35972 ft 485 kts 51°
2026-05-07 23:25 41.35113 6.74214 35962 ft 485 kts 51°
2026-05-07 23:26 41.39396 6.81090 35967 ft 485 kts 51°
2026-05-07 23:26 41.43682 6.88005 35968 ft 485 kts 51°
2026-05-07 23:27 41.50094 6.98402 35965 ft 484 kts 51°
2026-05-07 23:27 41.54332 7.05297 35964 ft 485 kts 51°
2026-05-07 23:28 41.58598 7.12256 35970 ft 485 kts 51°
2026-05-07 23:28 41.62875 7.19250 35964 ft 485 kts 51°
2026-05-07 23:29 41.67115 7.26199 35967 ft 485 kts 51°
2026-05-07 23:29 41.71373 7.33195 35965 ft 486 kts 51°
2026-05-07 23:30 41.75614 7.40174 35966 ft 485 kts 51°
2026-05-07 23:30 41.79874 7.47206 35966 ft 486 kts 51°
2026-05-07 23:31 41.84099 7.54197 35968 ft 486 kts 51°
2026-05-07 23:31 41.88326 7.61209 35972 ft 487 kts 51°
2026-05-07 23:32 41.92589 7.68298 35973 ft 486 kts 52°
2026-05-07 23:32 41.96808 7.75326 35971 ft 486 kts 52°
2026-05-07 23:33 42.01043 7.82403 35971 ft 487 kts 52°
2026-05-07 23:33 42.05250 7.89446 35969 ft 485 kts 52°
2026-05-07 23:34 42.09479 7.96543 35972 ft 487 kts 52°
2026-05-07 23:34 42.13690 8.03624 35969 ft 486 kts 52°
2026-05-07 23:35 42.17891 8.10705 35970 ft 487 kts 52°
2026-05-07 23:35 42.22124 8.17857 35974 ft 487 kts 52°
2026-05-07 23:36 42.26323 8.24964 35975 ft 487 kts 52°
2026-05-07 23:36 42.30584 8.32046 35969 ft 488 kts 49°
2026-05-07 23:37 42.35729 8.37851 35973 ft 486 kts 26°
2026-05-07 23:37 42.41876 8.41643 35969 ft 486 kts 19°
2026-05-07 23:38 42.48121 8.44939 35970 ft 483 kts 18°
2026-05-07 23:38 42.54405 8.48245 35971 ft 483 kts 18°
2026-05-07 23:39 42.60598 8.51596 35970 ft 483 kts 19°
2026-05-07 23:39 42.66837 8.55042 35970 ft 483 kts 19°
2026-05-07 23:40 42.73047 8.58506 35967 ft 483 kts 19°
2026-05-07 23:40 42.79248 8.61984 35971 ft 484 kts 19°
2026-05-07 23:41 42.85432 8.65463 35969 ft 482 kts 20°
2026-05-07 23:41 42.91625 8.68953 35971 ft 484 kts 20°
2026-05-07 23:42 42.97838 8.72461 35965 ft 482 kts 20°
2026-05-07 23:42 43.04033 8.75964 35965 ft 484 kts 20°
2026-05-07 23:43 43.10248 8.79489 35960 ft 483 kts 20°
2026-05-07 23:43 43.16402 8.82988 35970 ft 483 kts 20°
2026-05-07 23:44 43.22607 8.86522 35969 ft 483 kts 20°
2026-05-07 23:44 43.28811 8.90063 35964 ft 483 kts 20°
2026-05-07 23:45 43.34989 8.93545 35964 ft 482 kts 17°
2026-05-07 23:45 43.41426 8.95848 35969 ft 474 kts
2026-05-07 23:46 43.47953 8.96435 35965 ft 475 kts
2026-05-07 23:46 43.54306 8.98951 36086 ft 481 kts 20°
2026-05-07 23:47 43.57359 9.00971 36198 ft 484 kts 26°
2026-05-07 23:47 43.60210 9.03385 36309 ft 487 kts 33°
2026-05-07 23:47 43.62904 9.06226 36422 ft 488 kts 39°
2026-05-07 23:47 43.65381 9.09359 36551 ft 487 kts 43°
2026-05-07 23:48 43.67775 9.12631 36697 ft 487 kts 44°
2026-05-07 23:48 43.70195 9.15921 36842 ft 487 kts 43°
2026-05-07 23:48 43.72642 9.19110 36955 ft 487 kts 41°
2026-05-07 23:48 43.75155 9.22225 36966 ft 487 kts 39°
2026-05-07 23:49 43.80324 9.28236 36965 ft 484 kts 37°
2026-05-07 23:49 43.85580 9.34029 36965 ft 485 kts 36°
2026-05-07 23:50 43.90884 9.39750 36968 ft 485 kts 36°
2026-05-07 23:50 43.96193 9.45450 36971 ft 485 kts 35°
2026-05-07 23:51 44.01526 9.51183 36968 ft 484 kts 35°
2026-05-07 23:51 44.06854 9.56929 36963 ft 484 kts 35°
2026-05-07 23:52 44.12160 9.62666 36974 ft 484 kts 35°
2026-05-07 23:52 44.17459 9.68406 36976 ft 484 kts 36°
2026-05-07 23:53 44.22749 9.74151 36976 ft 485 kts 36°
2026-05-07 23:53 44.28043 9.79916 36982 ft 486 kts 36°
2026-05-07 23:54 44.33375 9.85735 36985 ft 484 kts 36°
2026-05-07 23:54 44.38662 9.91517 37000 ft 485 kts 36°
2026-05-07 23:55 44.43938 9.97306 37011 ft 485 kts 35°
2026-05-07 23:55 44.49247 10.03144 37018 ft 484 kts 35°
2026-05-07 23:56 44.54499 10.08931 37017 ft 485 kts 35°
2026-05-07 23:56 44.59799 10.14783 37010 ft 486 kts 35°
2026-05-07 23:57 44.65071 10.20619 37003 ft 485 kts 35°
2026-05-07 23:57 44.70374 10.26505 36996 ft 486 kts 35°
2026-05-07 23:58 44.75639 10.32362 36997 ft 486 kts 35°
2026-05-07 23:58 44.80913 10.38241 36997 ft 485 kts 35°
2026-05-07 23:59 44.86188 10.44136 36993 ft 485 kts 35°
2026-05-07 23:59 44.91449 10.50032 36999 ft 485 kts 35°
2026-05-08 00:00 44.96707 10.55941 37002 ft 485 kts 35°
2026-05-08 00:00 45.01987 10.61886 37002 ft 485 kts 34°
2026-05-08 00:01 45.07232 10.67804 37010 ft 485 kts 36°
2026-05-08 00:01 45.12470 10.73728 37018 ft 483 kts 36°
2026-05-08 00:02 45.17705 10.79669 37022 ft 483 kts 35°
2026-05-08 00:02 45.22939 10.85621 37026 ft 484 kts 35°
2026-05-08 00:03 45.28156 10.91566 37029 ft 484 kts 35°
2026-05-08 00:03 45.33390 10.97547 37040 ft 484 kts 35°
2026-05-08 00:04 45.38600 11.03515 37048 ft 484 kts 35°
2026-05-08 00:04 45.43831 11.09516 37048 ft 483 kts 36°
2026-05-08 00:05 45.49027 11.15492 37053 ft 482 kts 35°
2026-05-08 00:05 45.54214 11.21473 37054 ft 482 kts 35°
2026-05-08 00:06 45.59412 11.27477 37052 ft 481 kts 35°
2026-05-08 00:06 45.64585 11.33474 37037 ft 480 kts 35°
2026-05-08 00:07 45.69739 11.39463 37053 ft 481 kts 35°
2026-05-08 00:07 45.74903 11.45480 37048 ft 477 kts 35°
2026-05-08 00:08 45.80040 11.51476 37051 ft 478 kts 35°
2026-05-08 00:08 45.85168 11.57478 37067 ft 478 kts 36°
2026-05-08 00:09 45.90287 11.63490 37055 ft 478 kts 35°
2026-05-08 00:09 45.95419 11.69526 37047 ft 480 kts 36°
2026-05-08 00:10 46.00555 11.75579 37067 ft 478 kts 36°
2026-05-08 00:10 46.05695 11.81654 37058 ft 479 kts 36°
2026-05-08 00:11 46.10815 11.87725 37074 ft 477 kts 36°
2026-05-08 00:11 46.15929 11.93799 37069 ft 477 kts 36°
2026-05-08 00:12 46.21032 11.99877 37070 ft 477 kts 36°
2026-05-08 00:12 46.26099 12.05926 37071 ft 476 kts 36°
2026-05-08 00:13 46.31185 12.12013 37069 ft 478 kts 36°
2026-05-08 00:13 46.36279 12.18122 37072 ft 476 kts 36°
2026-05-08 00:14 46.41388 12.24268 37045 ft 476 kts 36°
2026-05-08 00:14 46.45600 12.29347 37065 ft 476 kts 36°
2026-05-08 00:15 46.51514 12.36495 37064 ft 476 kts 36°
2026-05-08 00:15 46.56563 12.42614 37078 ft 475 kts 36°
2026-05-08 00:16 46.61643 12.48784 37092 ft 475 kts 36°
2026-05-08 00:16 46.66700 12.54934 37091 ft 475 kts 35°
2026-05-08 00:17 46.71945 12.60604 37106 ft 470 kts 27°
2026-05-08 00:17 46.77654 12.65049 37074 ft 466 kts 21°
2026-05-08 00:18 46.83514 12.69006 37053 ft 465 kts 20°
2026-05-08 00:18 46.89366 12.72915 37061 ft 464 kts 20°
2026-05-08 00:19 46.95169 12.76872 37087 ft 464 kts 21°
2026-05-08 00:19 47.01001 12.80915 37090 ft 464 kts 21°
2026-05-08 00:20 47.06811 12.84980 37081 ft 464 kts 21°
2026-05-08 00:20 47.12607 12.89056 37062 ft 464 kts 21°
2026-05-08 00:21 47.18435 12.93168 37111 ft 464 kts 21°
2026-05-08 00:21 47.24220 12.97258 37101 ft 464 kts 21°
2026-05-08 00:22 47.29987 13.01347 37121 ft 463 kts 21°
2026-05-08 00:22 47.35804 13.05479 37107 ft 463 kts 21°
2026-05-08 00:23 47.41580 13.09595 37095 ft 462 kts 21°
2026-05-08 00:23 47.47372 13.13729 37072 ft 463 kts 21°
2026-05-08 00:24 47.53114 13.17840 37075 ft 463 kts 21°
2026-05-08 00:24 47.58916 13.22004 37073 ft 462 kts 21°
2026-05-08 00:25 47.64672 13.26146 37083 ft 462 kts 21°
2026-05-08 00:25 47.70416 13.30287 37093 ft 462 kts 21°
2026-05-08 00:26 47.75254 13.33784 37087 ft 463 kts 21°
2026-05-08 00:26 47.81011 13.37955 37068 ft 462 kts 21°
2026-05-08 00:27 47.87725 13.42830 37067 ft 462 kts 21°
2026-05-08 00:27 47.93460 13.47006 37061 ft 462 kts 21°
2026-05-08 00:28 47.96348 13.49114 37214 ft 463 kts 21°
2026-05-08 00:28 47.99224 13.51215 37088 ft 461 kts 21°
2026-05-08 00:28 48.04929 13.55395 37055 ft 457 kts 21°
2026-05-08 00:29 48.10648 13.59588 37058 ft 460 kts 21°
2026-05-08 00:29 48.16393 13.63801 37055 ft 460 kts 21°
2026-05-08 00:30 48.22230 13.67418 37059 ft 455 kts 13°
2026-05-08 00:30 48.27308 13.69373 37056 ft 453 kts
2026-05-08 00:31 48.33491 13.71198 37060 ft 452 kts
2026-05-08 00:31 48.40655 13.73234 37061 ft 452 kts
2026-05-08 00:32 48.46799 13.75050 37058 ft 452 kts
2026-05-08 00:32 48.52958 13.76920 37017 ft 450 kts
2026-05-08 00:33 48.56007 13.77857 36688 ft 447 kts
2026-05-08 00:33 48.59037 13.78792 36180 ft 447 kts
2026-05-08 00:33 48.62083 13.79732 35576 ft 449 kts
2026-05-08 00:33 48.65112 13.80668 35035 ft 449 kts
2026-05-08 00:34 48.68162 13.81613 34515 ft 448 kts
2026-05-08 00:34 48.70171 13.82237 34181 ft 448 kts
2026-05-08 00:34 48.74221 13.83497 33523 ft 448 kts
2026-05-08 00:34 48.76243 13.84126 33175 ft 449 kts
2026-05-08 00:35 48.80333 13.85401 32454 ft 449 kts
2026-05-08 00:35 48.82347 13.86030 32088 ft 450 kts
2026-05-08 00:35 48.86403 13.87298 31307 ft 448 kts
2026-05-08 00:35 48.89465 13.88258 30704 ft 446 kts
2026-05-08 00:36 48.91448 13.88881 30325 ft 443 kts
2026-05-08 00:36 48.94466 13.89830 29782 ft 439 kts
2026-05-08 00:36 48.97435 13.90765 29234 ft 434 kts
2026-05-08 00:36 49.01326 13.91992 28545 ft 428 kts
2026-05-08 00:37 49.04221 13.92905 28028 ft 423 kts
2026-05-08 00:37 49.06131 13.93508 27679 ft 420 kts
2026-05-08 00:37 49.08968 13.94405 27164 ft 416 kts
2026-05-08 00:38 49.15454 13.96457 25996 ft 406 kts
2026-05-08 00:38 49.18202 13.97328 25494 ft 401 kts
2026-05-08 00:38 49.20920 13.98189 25002 ft 397 kts
2026-05-08 00:38 49.22693 13.98661 24830 ft 388 kts
2026-05-08 00:39 49.26210 13.98872 24441 ft 373 kts 356°
2026-05-08 00:39 49.27914 13.98763 24078 ft 371 kts 354°
2026-05-08 00:39 49.31261 13.98435 23769 ft 354 kts 353°
2026-05-08 00:39 49.33710 13.98206 23243 ft 350 kts 354°
2026-05-08 00:40 49.36123 13.98022 22662 ft 347 kts 355°
2026-05-08 00:40 49.38494 13.97885 22097 ft 344 kts 355°
2026-05-08 00:40 49.40096 13.97811 21723 ft 342 kts 355°
2026-05-08 00:40 49.43248 13.97692 20952 ft 339 kts 355°
2026-05-08 00:41 49.44795 13.97642 20589 ft 337 kts 355°
2026-05-08 00:41 49.47878 13.97549 19833 ft 334 kts 355°
2026-05-08 00:41 49.49420 13.97503 19459 ft 332 kts 356°
2026-05-08 00:41 49.51716 13.97436 18880 ft 331 kts 356°
2026-05-08 00:42 49.54776 13.97347 18137 ft 327 kts 356°
2026-05-08 00:42 49.56254 13.97304 17794 ft 326 kts 356°
2026-05-08 00:42 49.58505 13.97240 17271 ft 323 kts 356°
2026-05-08 00:42 49.60749 13.97176 16800 ft 321 kts 356°
2026-05-08 00:43 49.62964 13.97113 16282 ft 318 kts 356°
2026-05-08 00:43 49.65869 13.97030 15735 ft 310 kts 356°
2026-05-08 00:43 49.67973 13.96963 15497 ft 298 kts 355°
2026-05-08 00:43 49.69374 13.96804 15096 ft 299 kts 351°
2026-05-08 00:44 49.72049 13.96233 14634 ft 289 kts 349°
2026-05-08 00:44 49.73373 13.95922 14296 ft 288 kts 349°
2026-05-08 00:44 49.75989 13.95351 13613 ft 288 kts 351°
2026-05-08 00:44 49.77312 13.95087 13220 ft 289 kts 351°
2026-05-08 00:45 49.79978 13.94582 12347 ft 294 kts 351°
2026-05-08 00:45 49.82008 13.94206 11697 ft 297 kts 351°
2026-05-08 00:45 49.83379 13.93953 11260 ft 298 kts 351°
2026-05-08 00:45 49.86108 13.93447 10415 ft 300 kts 351°
2026-05-08 00:46 49.87500 13.93176 9988 ft 299 kts 348°
2026-05-08 00:46 49.89416 13.92126 9439 ft 292 kts 326°
2026-05-08 00:46 49.90894 13.90056 8972 ft 284 kts 308°
2026-05-08 00:46 49.91974 13.87588 8518 ft 278 kts 295°
2026-05-08 00:47 49.92448 13.84737 8126 ft 271 kts 271°
2026-05-08 00:47 49.92227 13.81884 7751 ft 265 kts 256°
2026-05-08 00:47 49.91672 13.79235 7372 ft 261 kts 251°
2026-05-08 00:47 49.91035 13.76631 6985 ft 256 kts 250°
2026-05-08 00:48 49.90397 13.74085 6674 ft 252 kts 250°
2026-05-08 00:48 49.89766 13.71576 6276 ft 252 kts 250°
2026-05-08 00:48 49.89133 13.69064 5970 ft 250 kts 250°
2026-05-08 00:48 49.88277 13.65673 5952 ft 254 kts 250°
2026-05-08 00:49 49.87701 13.63105 5948 ft 253 kts 260°
2026-05-08 00:49 49.87628 13.61310 5835 ft 255 kts 277°
2026-05-08 00:49 49.88599 13.58064 5495 ft 250 kts 316°
2026-05-08 00:49 49.89537 13.57045 5324 ft 251 kts 335°
2026-05-08 00:50 49.91801 13.56850 4982 ft 250 kts 21°
2026-05-08 00:50 49.92763 13.57804 4811 ft 248 kts 45°
2026-05-08 00:50 49.93677 13.60023 4569 ft 246 kts 64°
2026-05-08 00:50 49.94374 13.62447 4318 ft 250 kts 67°
2026-05-08 00:51 49.94973 13.65021 4059 ft 255 kts 71°
2026-05-08 00:51 49.95672 13.68454 3985 ft 252 kts 72°
2026-05-08 00:51 49.96087 13.71134 3982 ft 253 kts 79°
2026-05-08 00:51 49.96407 13.73797 3985 ft 254 kts 77°
2026-05-08 00:52 49.96692 13.75575 3986 ft 254 kts 73°
2026-05-08 00:52 49.97231 13.78154 3986 ft 253 kts 69°
2026-05-08 00:52 49.97865 13.80710 3985 ft 251 kts 66°
2026-05-08 00:52 49.98526 13.83168 3986 ft 243 kts 65°
2026-05-08 00:53 49.99186 13.85516 3988 ft 232 kts 64°
2026-05-08 00:53 49.99824 13.87726 3992 ft 216 kts 64°
2026-05-08 00:53 50.00417 13.89764 3992 ft 203 kts 64°
2026-05-08 00:53 50.00984 13.91701 3994 ft 187 kts 64°
2026-05-08 00:54 50.01514 13.93498 3995 ft 183 kts 64°
2026-05-08 00:54 50.02042 13.95278 3994 ft 183 kts 63°
2026-05-08 00:54 50.02584 13.97097 3994 ft 183 kts 64°
2026-05-08 00:54 50.03296 13.99491 3994 ft 183 kts 63°
2026-05-08 00:55 50.03658 14.00698 3997 ft 184 kts 63°
2026-05-08 00:55 50.04200 14.02498 3964 ft 185 kts 63°
2026-05-08 00:55 50.04742 14.04306 3716 ft 186 kts 63°
2026-05-08 00:55 50.05288 14.06118 3461 ft 184 kts 63°
2026-05-08 00:56 50.05825 14.07907 3217 ft 181 kts 63°
2026-05-08 00:56 50.06354 14.09670 2977 ft 179 kts 62°
2026-05-08 00:56 50.06876 14.11400 2741 ft 177 kts 62°
2026-05-08 00:56 50.07555 14.13649 2444 ft 165 kts 62°
2026-05-08 00:57 50.07879 14.14724 2303 ft 159 kts 62°
2026-05-08 00:57 50.08344 14.16272 2091 ft 159 kts 62°
2026-05-08 00:57 50.08814 14.17834 1873 ft 158 kts 62°
2026-05-08 00:57 50.09254 14.19367 1707 ft 155 kts 66°
2026-05-08 00:58 50.09655 14.20904 1518 ft 150 kts 63°
2026-05-08 00:58 50.10103 14.22345 1328 ft 147 kts 62°
2026-05-08 00:58 50.10534 14.23779 1188 ft 141 kts 62°
2026-05-08 00:58 50.10970 14.25207 1162 ft 74 kts 60°
2026-05-08 00:59 50.11061 14.25550 1159 ft 34 kts 70°
2026-05-08 00:59 50.11134 14.25806 1158 ft 23 kts 78°
2026-05-08 00:59 50.11125 14.26051 1159 ft 21 kts 92°
2026-05-08 00:59 50.11095 14.26258 1162 ft 18 kts 102°
2026-05-08 01:00 50.11076 14.26441 1166 ft 14 kts 98°
2026-05-08 01:00 50.11079 14.26579 1169 ft 11 kts 81°
2026-05-08 01:00 50.11035 14.26675 1173 ft 11 kts 149°
2026-05-08 01:00 50.10981 14.26727 1177 ft 7 kts 143°
2026-05-08 01:01 50.10959 14.26758 1179 ft 2 kts 131°
2026-05-08 01:01 50.10950 14.26788 1181 ft 3 kts 91°
2026-05-08 01:01 50.10955 14.26821 1182 ft 3 kts 65°
2026-05-08 01:01 50.10959 14.26834 1182 ft 0 kts 64°